Location: Vale
(35.4830°N, 81.3830°W)
Time: 03:22:18
(UTC-04:00)

SR - All Passes

Search period start: 01 June 2016 00:00
Search period end: 11 June 2016 00:00
Orbit: 581 x 877 km, 66.7° (Epoch: 31 May)

Date Brightness Start Highest point End Pass type
(mag) Time Alt. Az. Time Alt. Az. Time Alt. Az.
01 Jun - 00:21:02 10° NNW 00:25:20 58° ENE 00:29:29 10° SE visible
01 Jun - 14:47:01 10° SSW 14:52:38 85° ESE 14:57:51 10° NNE daylight
01 Jun - 16:32:42 10° WNW 16:35:14 13° NW 16:37:42 10° NNW daylight
01 Jun - 23:32:16 10° N 23:35:54 25° NE 23:39:26 10° ESE visible
02 Jun - 01:14:22 10° NW 01:17:48 24° WSW 01:21:11 10° SSW visible
02 Jun - 13:58:13 10° S 14:03:26 41° ESE 14:08:19 10° NE daylight
02 Jun - 15:41:07 10° WSW 15:45:36 25° NW 15:49:49 10° N daylight
02 Jun - 22:44:28 10° NNE 22:46:16 12° NE 22:48:03 10° ENE visible
03 Jun - 00:24:30 10° NW 00:28:44 59° WSW 00:32:53 10° SSE visible
03 Jun - 13:10:27 10° SSE 13:14:21 20° ESE 13:18:06 10° ENE daylight
03 Jun - 14:50:47 10° SW 14:56:09 49° WNW 15:01:08 10° NNE daylight
03 Jun - 23:35:15 10° NNW 23:39:30 55° ENE 23:43:38 10° SE visible
04 Jun - 14:01:15 10° SSW 14:06:51 82° ESE 14:12:01 10° NNE daylight
04 Jun - 15:46:45 10° W 15:49:25 14° NW 15:51:59 10° NNW daylight
04 Jun - 22:46:31 10° N 22:50:04 24° NE 22:53:32 10° ESE visible
05 Jun - 00:28:30 10° NW 00:32:00 25° WSW 00:35:27 10° SSW visible
05 Jun - 13:12:30 10° S 13:17:39 39° ESE 13:22:28 10° NE daylight
05 Jun - 14:55:16 10° WSW 14:59:47 26° NW 15:04:03 10° N daylight
05 Jun - 21:58:51 10° NNE 22:00:25 12° NE 22:01:58 10° ENE visible
05 Jun - 23:38:40 10° NNW 23:42:55 62° WSW 23:47:05 10° SSE visible
06 Jun - 12:24:49 10° SSE 12:28:34 19° ESE 12:32:10 10° ENE daylight
06 Jun - 14:04:58 10° SW 14:10:21 51° WNW 14:15:20 10° NNE daylight
06 Jun - 22:49:27 10° NNW 22:53:40 52° ENE 22:57:47 10° SE visible
07 Jun - 00:34:14 10° W 00:35:08 11° WSW 00:36:01 10° WSW visible
07 Jun - 13:15:29 10° SSW 13:21:03 78° ESE 13:26:12 10° NNE daylight
07 Jun - 15:00:48 10° W 15:03:35 14° NW 15:06:16 10° NNW daylight
07 Jun - 22:00:45 10° N 22:04:14 23° NE 22:07:37 10° ESE visible
07 Jun - 23:42:37 10° NW 23:46:11 26° WSW 23:49:43 10° SSW visible
08 Jun - 12:26:47 10° S 12:31:52 37° ESE 12:36:36 10° NE daylight
08 Jun - 14:09:25 10° WSW 14:13:58 27° NW 14:18:15 10° N daylight
08 Jun - 21:13:17 10° NNE 21:14:34 11° NE 21:15:50 10° ENE visible
08 Jun - 22:52:50 10° NNW 22:57:05 66° WSW 23:01:17 10° SSE visible
09 Jun - 11:39:12 10° SSE 11:42:48 18° ESE 11:46:14 10° ENE daylight
09 Jun - 13:19:10 10° SW 13:24:33 53° WNW 13:29:31 10° NNE daylight
09 Jun - 22:03:39 10° NNW 22:07:50 49° ENE 22:11:56 10° SE visible
09 Jun - 23:48:01 10° W 23:49:19 11° WSW 23:50:38 10° WSW visible
10 Jun - 12:29:43 10° SSW 12:35:15 75° ESE 12:40:22 10° NNE daylight
10 Jun - 14:14:53 10° W 14:17:45 15° NW 14:20:31 10° NNW daylight
10 Jun - 21:15:00 10° N 21:18:23 22° NE 21:21:42 10° ESE visible
10 Jun - 22:56:45 10° NW 23:00:22 27° WSW 23:03:58 10° SSW visible
